VOE56DL LFPO-LIPX

Flight info

Callsign VOE56DL
Flight time 1h 10m
Altitude 33000
Route OKASI DCT OKEKO DCT MOU DCT MADIV DCT MOKIP DCT TUFTA DCT GEVEA DCT ORSUD DCT BIBAN DCT INVOP DCT TZO
Aircraft A320/M-SDE3FGHIRWY/LB1

Departure

Time 2026-05-08 13:16
Airport Paris-Orly Airport (LFPO)

Arrival

Time 2026-05-08 14:27
Airport Verona Villafranca Valerio Catullo Airport (LIPX)
Time Latitude Longitude Altitude Speed Heading
2026-05-08 12:25 48.73147 2.36040 301 ft 0 kts 159°
2026-05-08 13:05 48.73153 2.36037 303 ft 2 kts 159°
2026-05-08 13:05 48.73172 2.36027 304 ft 3 kts 159°
2026-05-08 13:05 48.73190 2.36016 303 ft 3 kts 159°
2026-05-08 13:05 48.73207 2.36008 303 ft 3 kts 204°
2026-05-08 13:06 48.73214 2.36018 300 ft 2 kts 237°
2026-05-08 13:06 48.73224 2.36040 304 ft 2 kts 236°
2026-05-08 13:06 48.73226 2.36044 304 ft 0 kts 236°
2026-05-08 13:10 48.73221 2.36033 302 ft 4 kts 236°
2026-05-08 13:10 48.73202 2.35992 299 ft 5 kts 235°
2026-05-08 13:10 48.73184 2.35952 299 ft 4 kts 235°
2026-05-08 13:10 48.73157 2.35892 302 ft 10 kts 237°
2026-05-08 13:11 48.73118 2.35796 300 ft 12 kts 238°
2026-05-08 13:11 48.73071 2.35685 303 ft 13 kts 237°
2026-05-08 13:11 48.73015 2.35565 302 ft 15 kts 224°
2026-05-08 13:11 48.72921 2.35502 301 ft 15 kts 219°
2026-05-08 13:12 48.72893 2.35423 301 ft 0 kts 212°
2026-05-08 13:12 48.72890 2.35424 302 ft 2 kts 191°
2026-05-08 13:12 48.72831 2.35441 300 ft 15 kts 166°
2026-05-08 13:12 48.72753 2.35547 301 ft 17 kts 102°
2026-05-08 13:13 48.72662 2.35639 301 ft 17 kts 166°
2026-05-08 13:13 48.72544 2.35688 300 ft 18 kts 165°
2026-05-08 13:13 48.72445 2.35636 301 ft 16 kts 221°
2026-05-08 13:13 48.72350 2.35643 301 ft 13 kts 181°
2026-05-08 13:14 48.72270 2.35606 299 ft 12 kts 192°
2026-05-08 13:14 48.72172 2.35621 299 ft 16 kts 163°
2026-05-08 13:14 48.72070 2.35676 302 ft 14 kts 145°
2026-05-08 13:14 48.72015 2.35787 301 ft 12 kts 118°
2026-05-08 13:15 48.71977 2.35892 303 ft 10 kts 119°
2026-05-08 13:15 48.71971 2.36018 299 ft 23 kts 74°
2026-05-08 13:15 48.72074 2.36575 304 ft 89 kts 74°
2026-05-08 13:15 48.72297 2.37786 300 ft 147 kts 75°
2026-05-08 13:16 48.72608 2.39397 685 ft 161 kts 72°
2026-05-08 13:16 48.72916 2.41017 1422 ft 160 kts 75°
2026-05-08 13:16 48.73211 2.42636 2192 ft 159 kts 75°
2026-05-08 13:16 48.73502 2.44241 2900 ft 157 kts 75°
2026-05-08 13:17 48.73791 2.45836 3551 ft 158 kts 75°
2026-05-08 13:17 48.74054 2.47546 3919 ft 177 kts 82°
2026-05-08 13:17 48.74164 2.49523 4202 ft 200 kts 86°
2026-05-08 13:17 48.74234 2.51754 4476 ft 225 kts 87°
2026-05-08 13:18 48.74281 2.53377 4746 ft 241 kts 87°
2026-05-08 13:18 48.74298 2.56032 5233 ft 262 kts 98°
2026-05-08 13:18 48.73529 2.58538 5992 ft 270 kts 132°
2026-05-08 13:18 48.72044 2.60300 6847 ft 275 kts 154°
2026-05-08 13:19 48.70198 2.61030 7711 ft 278 kts 180°
2026-05-08 13:19 48.68303 2.60504 8614 ft 279 kts 200°
2026-05-08 13:19 48.66464 2.59536 9548 ft 281 kts 200°
2026-05-08 13:19 48.64605 2.58543 10372 ft 288 kts 200°
2026-05-08 13:20 48.62635 2.57488 10677 ft 311 kts 200°
2026-05-08 13:20 48.60547 2.56377 11271 ft 322 kts 200°
2026-05-08 13:20 48.58415 2.55255 12035 ft 326 kts 200°
2026-05-08 13:20 48.56262 2.54131 12842 ft 329 kts 200°
2026-05-08 13:21 48.54091 2.53000 13645 ft 332 kts 200°
2026-05-08 13:21 48.51918 2.51868 14544 ft 327 kts 200°
2026-05-08 13:21 48.49764 2.50747 15323 ft 328 kts 199°
2026-05-08 13:21 48.47515 2.50048 16009 ft 333 kts 186°
2026-05-08 13:22 48.45179 2.50198 16692 ft 340 kts 172°
2026-05-08 13:22 48.42899 2.51234 17353 ft 347 kts 158°
2026-05-08 13:22 48.40724 2.52905 18024 ft 352 kts 155°
2026-05-08 13:22 48.38571 2.54578 18623 ft 355 kts 155°
2026-05-08 13:23 48.36332 2.56305 19178 ft 359 kts 156°
2026-05-08 13:23 48.34124 2.57998 19707 ft 363 kts 156°
2026-05-08 13:23 48.31860 2.59728 20247 ft 367 kts 156°
2026-05-08 13:23 48.29567 2.61481 20791 ft 371 kts 156°
2026-05-08 13:24 48.27248 2.63256 21310 ft 376 kts 156°
2026-05-08 13:24 48.24908 2.65051 21832 ft 380 kts 156°
2026-05-08 13:24 48.22538 2.66871 22361 ft 384 kts 156°
2026-05-08 13:24 48.20145 2.68709 22878 ft 389 kts 156°
2026-05-08 13:25 48.17721 2.70573 23392 ft 393 kts 156°
2026-05-08 13:25 48.15272 2.72456 23850 ft 398 kts 156°
2026-05-08 13:25 48.12796 2.74357 24263 ft 402 kts 156°
2026-05-08 13:25 48.10288 2.76274 24673 ft 407 kts 156°
2026-05-08 13:26 48.07747 2.78194 25084 ft 411 kts 158°
2026-05-08 13:26 48.05138 2.80004 25397 ft 415 kts 159°
2026-05-08 13:26 48.02515 2.81806 25107 ft 414 kts 159°
2026-05-08 13:26 47.99920 2.83600 24886 ft 410 kts 159°
2026-05-08 13:27 47.97315 2.85390 24754 ft 419 kts 159°
2026-05-08 13:27 47.94602 2.87232 24677 ft 437 kts 159°
2026-05-08 13:27 47.91863 2.89109 25210 ft 432 kts 158°
2026-05-08 13:27 47.89129 2.91019 26023 ft 426 kts 158°
2026-05-08 13:28 47.86439 2.92903 26523 ft 428 kts 158°
2026-05-08 13:28 47.83737 2.94796 26935 ft 431 kts 158°
2026-05-08 13:28 47.81000 2.96657 27317 ft 433 kts 162°
2026-05-08 13:28 47.78187 2.98123 27696 ft 434 kts 167°
2026-05-08 13:29 47.75243 2.99423 28066 ft 437 kts 168°
2026-05-08 13:29 47.72361 3.00746 28426 ft 441 kts 166°
2026-05-08 13:29 47.69450 3.02258 28776 ft 446 kts 163°
2026-05-08 13:29 47.66543 3.03954 29137 ft 450 kts 161°
2026-05-08 13:30 47.63654 3.05778 29479 ft 454 kts 160°
2026-05-08 13:30 47.60751 3.07680 29821 ft 457 kts 160°
2026-05-08 13:30 47.57832 3.09599 30145 ft 460 kts 160°
2026-05-08 13:30 47.54891 3.11505 30446 ft 462 kts 160°
2026-05-08 13:31 47.51929 3.13388 30748 ft 464 kts 161°
2026-05-08 13:31 47.48952 3.15251 31055 ft 466 kts 161°
2026-05-08 13:31 47.45955 3.17107 31361 ft 468 kts 161°
2026-05-08 13:31 47.42947 3.18963 31661 ft 469 kts 161°
2026-05-08 13:32 47.39927 3.20827 31953 ft 471 kts 161°
2026-05-08 13:32 47.36903 3.22694 32231 ft 473 kts 161°
2026-05-08 13:32 47.33855 3.24575 32510 ft 475 kts 161°
2026-05-08 13:32 47.30806 3.26456 32783 ft 476 kts 161°
2026-05-08 13:33 47.27745 3.28342 33043 ft 478 kts 161°
2026-05-08 13:33 47.24674 3.30236 33290 ft 479 kts 161°
2026-05-08 13:33 47.21592 3.32139 33528 ft 481 kts 161°
2026-05-08 13:33 47.18507 3.34045 33763 ft 482 kts 161°
2026-05-08 13:34 47.15414 3.35951 33973 ft 483 kts 161°
2026-05-08 13:34 47.12307 3.37863 34167 ft 484 kts 161°
2026-05-08 13:34 47.09192 3.39777 34333 ft 485 kts 161°
2026-05-08 13:34 47.06077 3.41681 34499 ft 486 kts 161°
2026-05-08 13:35 47.02955 3.43584 34654 ft 487 kts 161°
2026-05-08 13:35 46.99823 3.45490 34803 ft 487 kts 161°
2026-05-08 13:35 46.96727 3.47370 34939 ft 488 kts 161°
2026-05-08 13:35 46.93549 3.49302 35072 ft 488 kts 161°
2026-05-08 13:36 46.90452 3.51189 35195 ft 489 kts 161°
2026-05-08 13:36 46.87314 3.53100 35308 ft 489 kts 161°
2026-05-08 13:36 46.84169 3.55011 35430 ft 489 kts 161°
2026-05-08 13:36 46.81032 3.56913 35548 ft 489 kts 161°
2026-05-08 13:37 46.77908 3.58899 35672 ft 491 kts 156°
2026-05-08 13:37 46.75007 3.61564 35796 ft 495 kts 144°
2026-05-08 13:37 46.72491 3.64994 35920 ft 498 kts 132°
2026-05-08 13:37 46.70485 3.69084 36291 ft 493 kts 120°
2026-05-08 13:38 46.69042 3.73577 36708 ft 488 kts 109°
2026-05-08 13:38 46.68120 3.78326 36948 ft 487 kts 104°
2026-05-08 13:38 46.66489 3.87871 36991 ft 484 kts 104°
2026-05-08 13:39 46.64861 3.97380 36995 ft 484 kts 104°
2026-05-08 13:39 46.63216 4.06866 36997 ft 484 kts 104°
2026-05-08 13:40 46.61557 4.16358 36996 ft 484 kts 104°
2026-05-08 13:40 46.59904 4.25784 37001 ft 484 kts 104°
2026-05-08 13:41 46.58240 4.35263 37003 ft 484 kts 104°
2026-05-08 13:41 46.56563 4.44744 37005 ft 484 kts 104°
2026-05-08 13:42 46.54875 4.54222 37006 ft 484 kts 104°
2026-05-08 13:42 46.53181 4.63696 37006 ft 484 kts 104°
2026-05-08 13:43 46.51477 4.73168 37005 ft 485 kts 105°
2026-05-08 13:43 46.49767 4.82628 37007 ft 484 kts 105°
2026-05-08 13:44 46.48050 4.92086 37006 ft 484 kts 105°
2026-05-08 13:44 46.46320 5.01532 37006 ft 485 kts 105°
2026-05-08 13:45 46.44602 5.10898 37007 ft 485 kts 105°
2026-05-08 13:45 46.42865 5.20364 37007 ft 485 kts 105°
2026-05-08 13:46 46.41118 5.29802 37010 ft 485 kts 105°
2026-05-08 13:46 46.39357 5.39238 37013 ft 485 kts 105°
2026-05-08 13:47 46.37595 5.48679 37017 ft 485 kts 105°
2026-05-08 13:47 46.35843 5.58112 37020 ft 485 kts 105°
2026-05-08 13:48 46.34081 5.67535 37016 ft 485 kts 105°
2026-05-08 13:48 46.32309 5.76958 37015 ft 485 kts 105°
2026-05-08 13:49 46.30528 5.86383 37012 ft 485 kts 106°
2026-05-08 13:49 46.28732 5.95802 37007 ft 486 kts 106°
2026-05-08 13:50 46.26926 6.05213 37007 ft 485 kts 106°
2026-05-08 13:50 46.25020 6.14564 37006 ft 485 kts 112°
2026-05-08 13:51 46.22535 6.23546 37007 ft 485 kts 113°
2026-05-08 13:51 46.20026 6.32597 37008 ft 485 kts 113°
2026-05-08 13:52 46.17671 6.41061 37010 ft 484 kts 113°
2026-05-08 13:52 46.15147 6.50074 37013 ft 484 kts 113°
2026-05-08 13:53 46.12611 6.59081 37021 ft 484 kts 113°
2026-05-08 13:53 46.10072 6.68071 37026 ft 484 kts 114°
2026-05-08 13:54 46.07527 6.77059 37030 ft 484 kts 114°
2026-05-08 13:54 46.04981 6.86025 37037 ft 484 kts 114°
2026-05-08 13:55 46.02431 6.94992 37037 ft 484 kts 114°
2026-05-08 13:56 45.98583 7.08414 37028 ft 483 kts 114°
2026-05-08 13:56 45.96084 7.17388 37061 ft 484 kts 108°
2026-05-08 13:57 45.94749 7.26797 37062 ft 484 kts 100°
2026-05-08 13:57 45.93628 7.36323 37062 ft 483 kts 100°
2026-05-08 13:58 45.92465 7.45835 37066 ft 483 kts 101°
2026-05-08 13:58 45.90994 7.55241 37077 ft 483 kts 105°
2026-05-08 13:59 45.89278 7.64565 37081 ft 483 kts 106°
2026-05-08 13:59 45.87578 7.73876 37091 ft 482 kts 105°
2026-05-08 14:00 45.85950 7.83212 37097 ft 482 kts 105°
2026-05-08 14:00 45.84349 7.92546 37096 ft 482 kts 105°
2026-05-08 14:01 45.82727 8.01871 37095 ft 482 kts 105°
2026-05-08 14:01 45.81084 8.11188 37083 ft 481 kts 105°
2026-05-08 14:02 45.79429 8.20487 37088 ft 482 kts 105°
2026-05-08 14:02 45.77788 8.29820 36407 ft 486 kts 105°
2026-05-08 14:02 45.76967 8.34522 35563 ft 488 kts 105°
2026-05-08 14:03 45.76147 8.39220 34910 ft 485 kts 105°
2026-05-08 14:03 45.75330 8.43888 34340 ft 481 kts 105°
2026-05-08 14:03 45.74792 8.46955 33932 ft 479 kts 105°
2026-05-08 14:03 45.73978 8.51563 33401 ft 472 kts 106°
2026-05-08 14:04 45.73176 8.56086 32814 ft 467 kts 107°
2026-05-08 14:04 45.72381 8.60562 32366 ft 460 kts 107°
2026-05-08 14:04 45.71600 8.64960 31868 ft 454 kts 107°
2026-05-08 14:04 45.70823 8.69309 31523 ft 445 kts 107°
2026-05-08 14:05 45.70064 8.73562 30818 ft 445 kts 108°
2026-05-08 14:05 45.69287 8.77872 30073 ft 446 kts 108°
2026-05-08 14:05 45.68513 8.82145 29426 ft 442 kts 108°
2026-05-08 14:05 45.67745 8.86378 28804 ft 438 kts 108°
2026-05-08 14:06 45.66986 8.90576 28208 ft 434 kts 107°
2026-05-08 14:06 45.66241 8.94702 27812 ft 425 kts 107°
2026-05-08 14:06 45.65506 8.98757 27544 ft 415 kts 108°
2026-05-08 14:06 45.64789 9.02709 27151 ft 408 kts 107°
2026-05-08 14:07 45.64075 9.06619 26682 ft 405 kts 107°
2026-05-08 14:07 45.63365 9.10490 26193 ft 402 kts 107°
2026-05-08 14:07 45.62659 9.14335 25715 ft 399 kts 107°
2026-05-08 14:07 45.61958 9.18161 25222 ft 397 kts 107°
2026-05-08 14:08 45.61261 9.21972 24723 ft 396 kts 107°
2026-05-08 14:08 45.60572 9.25719 24227 ft 394 kts 107°
2026-05-08 14:08 45.59872 9.29505 23723 ft 394 kts 107°
2026-05-08 14:08 45.59172 9.33274 23248 ft 390 kts 107°
2026-05-08 14:09 45.58477 9.37003 22704 ft 388 kts 107°
2026-05-08 14:09 45.57787 9.40701 22196 ft 385 kts 107°
2026-05-08 14:09 45.57098 9.44385 21668 ft 384 kts 106°
2026-05-08 14:09 45.56412 9.48058 21151 ft 382 kts 106°
2026-05-08 14:10 45.55602 9.51647 20692 ft 378 kts 115°
2026-05-08 14:10 45.54494 9.55039 20218 ft 375 kts 116°
2026-05-08 14:10 45.53390 9.58399 19761 ft 373 kts 116°
2026-05-08 14:10 45.52297 9.61734 19330 ft 370 kts 116°
2026-05-08 14:11 45.51206 9.65050 18902 ft 368 kts 116°
2026-05-08 14:11 45.50124 9.68333 18475 ft 365 kts 115°
2026-05-08 14:11 45.49042 9.71591 18015 ft 363 kts 116°
2026-05-08 14:11 45.47965 9.74828 17555 ft 360 kts 115°
2026-05-08 14:12 45.46899 9.78043 17101 ft 357 kts 116°
2026-05-08 14:12 45.45838 9.81234 16660 ft 355 kts 116°
2026-05-08 14:12 45.44787 9.84397 16235 ft 352 kts 115°
2026-05-08 14:12 45.43742 9.87541 15814 ft 350 kts 116°
2026-05-08 14:13 45.42700 9.90668 15410 ft 348 kts 116°
2026-05-08 14:13 45.41663 9.93762 15004 ft 346 kts 116°
2026-05-08 14:13 45.40632 9.96836 14598 ft 343 kts 116°
2026-05-08 14:13 45.39609 9.99893 14214 ft 341 kts 116°
2026-05-08 14:14 45.38594 10.02935 13823 ft 339 kts 116°
2026-05-08 14:14 45.37603 10.05916 13390 ft 337 kts 116°
2026-05-08 14:14 45.36603 10.08912 12964 ft 334 kts 116°
2026-05-08 14:14 45.35597 10.11918 12550 ft 331 kts 116°
2026-05-08 14:15 45.34630 10.14796 12286 ft 323 kts 116°
2026-05-08 14:15 45.33670 10.17651 11978 ft 318 kts 116°
2026-05-08 14:15 45.32720 10.20475 11601 ft 315 kts 116°
2026-05-08 14:15 45.31741 10.23218 11213 ft 313 kts 122°
2026-05-08 14:16 45.30400 10.25655 10818 ft 310 kts 132°
2026-05-08 14:16 45.28966 10.27940 10425 ft 308 kts 131°
2026-05-08 14:16 45.27545 10.30210 10022 ft 307 kts 131°
2026-05-08 14:16 45.26144 10.32446 9803 ft 298 kts 131°
2026-05-08 14:17 45.24793 10.34603 9407 ft 287 kts 131°
2026-05-08 14:17 45.23478 10.36711 8843 ft 282 kts 131°
2026-05-08 14:17 45.22195 10.38776 8426 ft 274 kts 131°
2026-05-08 14:17 45.20931 10.40811 8029 ft 276 kts 130°
2026-05-08 14:18 45.19661 10.42857 7624 ft 277 kts 131°
2026-05-08 14:18 45.18390 10.44898 7359 ft 271 kts 131°
2026-05-08 14:18 45.17193 10.46809 7278 ft 248 kts 131°
2026-05-08 14:18 45.16088 10.48568 7181 ft 232 kts 131°
2026-05-08 14:19 45.15219 10.50428 7080 ft 225 kts 107°
2026-05-08 14:19 45.15109 10.52605 6941 ft 225 kts 78°
2026-05-08 14:19 45.15816 10.54581 6537 ft 230 kts 48°
2026-05-08 14:19 45.16951 10.56208 6144 ft 234 kts 46°
2026-05-08 14:20 45.18098 10.57834 5762 ft 231 kts 46°
2026-05-08 14:20 45.19207 10.59413 5393 ft 227 kts 46°
2026-05-08 14:20 45.20303 10.60983 5035 ft 222 kts 46°
2026-05-08 14:20 45.21370 10.62513 4682 ft 215 kts 46°
2026-05-08 14:21 45.22401 10.63996 4333 ft 208 kts 46°
2026-05-08 14:21 45.23390 10.65422 4027 ft 197 kts 46°
2026-05-08 14:21 45.24327 10.66770 3706 ft 187 kts 46°
2026-05-08 14:21 45.25218 10.68054 3405 ft 177 kts 46°
2026-05-08 14:22 45.26051 10.69258 3190 ft 164 kts 47°
2026-05-08 14:22 45.26823 10.70369 3087 ft 154 kts 47°
2026-05-08 14:22 45.27566 10.71442 3023 ft 151 kts 47°
2026-05-08 14:22 45.28300 10.72507 3016 ft 151 kts 46°
2026-05-08 14:23 45.29039 10.73577 2889 ft 152 kts 47°
2026-05-08 14:23 45.29774 10.74645 2690 ft 151 kts 47°
2026-05-08 14:23 45.30505 10.75710 2481 ft 150 kts 47°
2026-05-08 14:23 45.31230 10.76767 2290 ft 149 kts 47°
2026-05-08 14:24 45.31952 10.77820 2087 ft 149 kts 48°
2026-05-08 14:24 45.32676 10.78875 1909 ft 149 kts 47°
2026-05-08 14:24 45.33400 10.79933 1711 ft 149 kts 47°
2026-05-08 14:24 45.34123 10.80989 1527 ft 149 kts 47°
2026-05-08 14:25 45.34843 10.82041 1430 ft 147 kts 47°
2026-05-08 14:25 45.35568 10.83101 1269 ft 151 kts 46°
2026-05-08 14:25 45.36291 10.84157 1050 ft 148 kts 47°
2026-05-08 14:25 45.37051 10.85212 834 ft 153 kts 44°
2026-05-08 14:26 45.37803 10.86277 586 ft 151 kts 45°
2026-05-08 14:26 45.38534 10.87347 346 ft 149 kts 45°
2026-05-08 14:26 45.39229 10.88353 232 ft 129 kts 45°
2026-05-08 14:26 45.39734 10.89091 238 ft 81 kts 45°
2026-05-08 14:27 45.40017 10.89500 244 ft 44 kts 45°
2026-05-08 14:27 45.40218 10.89791 247 ft 34 kts 46°
2026-05-08 14:27 45.40293 10.90014 247 ft 20 kts 77°
2026-05-08 14:27 45.40312 10.90115 245 ft 10 kts 75°
2026-05-08 14:28 45.40329 10.90212 244 ft 10 kts 78°
2026-05-08 14:28 45.40351 10.90307 244 ft 12 kts 60°
2026-05-08 14:28 45.40405 10.90388 244 ft 10 kts 46°
2026-05-08 14:28 45.40460 10.90468 245 ft 13 kts 45°
2026-05-08 14:29 45.40485 10.90560 246 ft 10 kts 111°
2026-05-08 14:29 45.40445 10.90633 245 ft 9 kts 139°
2026-05-08 14:29 45.40395 10.90694 244 ft 10 kts 139°
2026-05-08 14:29 45.40383 10.90708 243 ft 0 kts 140°